Wind_Speed
19 18 16 17 16 13 12 11 13 13 16 14 13 12 11 12 14 15 16 16 15 18 16 16 13 13 6 4 4 7 13 7 7 14 19 16 21 15 14 18 20 21 22 22 24
22 20 18 17 14 13 13 12 13 14 15 15 14 12 13 14 14 14 13 13 15 16 15 13 12 15 17 9 4 9 15 5 3 10 15 18 19 15 13 15 18 18 19 20 23
22 19 18 17 15 15 14 13 13 13 14 15 15 15 15 15 14 13 13 14 14 14 13 15 13 15 19 10 14 17 14 9 1 7 11 15 17 16 14 14 16 18 19 21 19
22 20 18 17 15 14 15 14 14 14 15 16 16 17 17 16 14 14 14 15 17 15 15 14 11 7 12 17 9 15 12 10 3 2 7 11 11 10 15 14 15 18 19 19 18
26 23 19 18 17 14 14 15 14 15 16 17 18 18 17 16 15 15 16 16 18 18 17 14 5 5 9 8 4 4 11 10 5 3 2 7 11 11 13 14 15 15 17 19 21
28 26 23 20 19 18 17 16 16 16 17 19 19 19 19 18 17 17 16 16 18 19 17 14 7 4 6 6 5 2 3 8 7 6 1 8 9 12 9 8 10 13 16 18 21
30 29 26 23 22 22 19 17 18 18 18 19 20 21 21 19 19 17 17 16 17 20 18 14 13 11 5 4 5 6 4 1 4 3 1 2 4 6 8 9 8 12 15 18 20
31 30 28 26 24 23 21 21 19 19 19 20 22 22 22 22 20 19 19 18 17 17 19 18 17 13 8 7 5 6 6 5 1 5 4 3 3 3 8 9 9 11 18 18 20
33 32 30 28 26 24 23 23 21 20 20 21 22 24 24 23 22 21 21 18 17 16 16 15 14 11 10 9 18 14 12 10 11 6 10 5 11 10 9 10 10 9 17 20 22
32 32 32 30 29 27 24 23 22 22 20 21 21 23 25 23 23 22 21 18 17 16 16 15 12 10 12 22 23 19 15 11 7 11 11 4 10 13 13 14 13 10 15 19 24
35 33 32 30 31 30 28 26 25 23 20 21 22 23 23 24 25 24 22 20 18 16 17 15 13 15 23 24 19 20 19 14 10 10 9 7 8 17 18 19 16 17 17 20 23
36 35 35 33 32 33 30 29 26 22 23 20 22 23 23 24 26 25 22 22 20 20 18 14 14 20 24 23 20 23 22 19 15 12 14 16 7 13 20 21 20 18 19 24 27
35 36 35 35 35 35 31 28 26 26 26 25 23 23 25 25 25 25 24 23 22 21 18 16 22 24 24 24 21 20 20 20 18 18 18 18 15 15 17 19 21 20 21 21 24
35 35 35 36 37 38 33 30 28 27 28 24 24 22 25 23 24 27 26 23 21 22 21 20 22 24 24 22 20 17 23 26 22 21 23 23 26 24 20 21 24 21 19 18 18
31 32 35 37 38 38 35 35 33 29 29 27 27 25 25 23 25 26 27 24 22 23 23 23 24 23 22 18 20 19 21 23 20 19 25 18 31 29 21 18 17 14 18 19 32
27 27 31 36 39 37 37 38 35 33 30 29 27 25 25 22 25 26 26 27 26 27 24 24 20 20 20 18 21 19 22 19 15 16 15 18 20 19 17 18 12 16 17 23 32
26 27 27 30 35 38 39 40 37 38 31 30 27 28 25 25 25 26 26 24 24 25 22 24 22 21 20 16 21 14 15 16 16 16 18 18 19 17 16 14 16 19 22 24 28
27 27 28 29 27 34 42 43 42 34 30 33 32 29 30 28 27 27 26 24 26 25 24 25 24 18 14 20 15 15 18 16 14 17 18 19 19 20 20 19 21 24 24 21 36
32 30 29 24 24 31 40 46 41 36 33 34 33 31 30 31 32 33 30 25 24 25 25 25 24 20 26 24 21 16 14 14 14 15 15 15 17 22 20 19 18 20 25 26 36
33 32 32 29 26 29 35 37 36 36 37 33 34 35 33 35 34 34 32 28 25 26 25 24 20 25 27 23 23 18 13 13 14 16 15 16 20 23 20 20 22 23 28 28 30
35 34 35 34 30 28 27 24 30 38 40 38 34 36 34 32 35 37 34 26 25 27 26 24 23 24 23 21 16 12 12 14 16 16 18 19 19 23 22 17 17 25 30 33 35
35 36 35 37 36 29 24 27 29 38 42 42 36 38 36 36 34 34 35 29 25 27 28 25 26 28 23 23 22 15 13 12 13 16 19 20 21 25 24 24 25 29 31 28 33
35 37 37 37 38 34 31 30 27 37 44 45 41 42 39 35 35 29 26 31 30 30 27 28 30 30 28 26 25 21 20 18 17 18 17 16 11 9 8 10 13 19 24 27 24
36 37 39 37 38 36 35 30 26 38 48 47 44 48 41 36 35 33 29 25 30 29 28 27 31 30 30 27 25 25 27 23 19 20 22 24 19 22 16 14 20 19 18 25 12
35 36 35 37 38 37 37 31 27 38 49 51 50 49 47 40 37 34 32 28 28 29 26 31 29 33 31 32 29 25 25 24 24 26 28 28 22 24 24 18 24 24 27 27 29
33 35 34 35 35 34 34 33 32 38 48 54 51 47 48 44 45 39 35 33 34 34 28 26 28 30 35 36 32 30 30 29 31 34 36 32 28 24 29 29 29 32 30 33 32
31 32 34 35 33 34 34 36 37 38 46 49 52 49 48 45 50 46 40 38 38 34 32 30 30 29 29 30 29 30 30 28 31 31 32 32 29 28 27 30 33 34 34 33 33
Wind_Direction
226 227 227 232 237 230 234 237 231 214 218 222 215 212 206 197 195 200 203 210 196 202 200 211 179 193 165 194 126 160 110 87 55 58 57 69 68 52 31 23 15 12 11 14 10
221 224 223 226 237 231 233 228 224 213 208 206 206 202 199 196 191 198 198 195 194 196 204 203 207 166 153 158 170 143 123 173 84 54 42 66 74 47 31 26 19 10 9 12 15
220 226 224 224 228 230 229 223 218 214 206 202 200 198 199 197 192 194 197 192 191 194 199 201 215 161 166 164 161 152 151 147 101 44 47 42 56 64 31 18 10 11 9 5 13
222 229 223 226 225 227 231 223 217 215 212 205 201 197 201 199 193 192 195 197 193 198 207 213 215 173 160 168 167 164 152 155 180 338 38 24 45 26 13 18 5 9 7 0 5
223 223 223 222 219 222 226 228 219 215 214 210 204 197 201 197 192 191 190 196 199 204 216 223 213 214 182 189 239 186 161 149 173 204 50 51 39 48 39 27 17 15 13 5 10
225 226 226 225 222 224 226 231 225 220 215 214 207 198 199 196 194 190 186 190 200 206 216 228 224 222 197 223 289 39 164 137 159 163 63 54 58 19 28 47 27 31 28 14 7
226 229 229 228 228 230 228 229 226 222 218 215 211 203 197 203 197 193 190 188 197 207 214 217 218 225 201 250 316 279 204 143 88 130 101 87 44 10 20 35 24 31 31 23 14
227 228 229 230 228 226 227 224 227 222 221 218 214 207 200 206 201 201 199 197 196 198 208 213 214 215 214 202 176 187 174 135 1 300 228 291 281 26 353 357 15 34 31 21 15
228 229 229 230 230 226 229 222 226 226 221 222 218 213 208 209 209 205 206 204 203 201 205 212 217 207 209 190 169 179 194 194 210 213 260 284 327 306 319 336 9 10 23 13 3
229 228 229 229 231 231 228 225 222 226 224 223 222 218 215 212 216 209 214 211 209 209 207 211 213 199 208 176 178 181 194 186 233 247 264 280 311 302 317 324 340 359 18 2 349
229 229 228 228 230 231 230 227 222 220 226 224 223 222 219 218 215 220 215 218 216 211 212 212 205 194 184 200 196 183 205 217 208 258 264 259 303 312 306 304 323 348 350 342 335
229 230 230 230 229 231 231 232 226 222 230 230 224 224 219 219 219 216 222 223 225 224 216 207 200 202 205 225 213 204 220 234 228 225 257 272 296 294 290 301 313 322 334 330 320
235 234 233 232 231 233 231 234 231 225 226 228 228 225 221 221 223 221 217 226 224 227 223 211 208 213 218 229 232 223 238 249 242 239 260 276 282 282 268 287 297 302 315 312 312
238 237 235 234 232 232 231 232 232 228 225 227 227 223 222 219 222 222 223 221 222 225 220 218 217 221 226 232 236 236 241 247 246 244 247 272 283 283 268 278 281 295 296 293 292
235 237 236 236 234 232 229 231 230 228 229 223 227 221 223 217 217 222 222 222 220 222 224 225 227 226 237 236 239 230 244 245 248 259 258 264 261 273 278 277 280 317 331 302 297
232 234 237 236 234 230 228 229 230 227 227 227 223 226 221 217 219 220 224 220 223 223 220 225 232 240 237 235 241 238 243 257 254 250 251 245 255 264 272 284 317 326 313 308 294
232 232 235 236 233 226 226 228 228 226 224 226 225 223 221 221 221 220 224 223 225 228 220 225 226 238 247 242 242 237 238 245 243 249 256 262 261 273 287 299 311 300 310 301 293
232 232 233 236 234 225 224 226 226 222 223 226 224 222 223 218 224 220 220 224 225 225 222 224 224 229 234 230 217 221 233 248 252 256 264 273 281 281 286 287 290 305 311 298 321
232 229 232 235 231 226 224 225 223 220 220 224 225 224 223 225 223 225 221 219 224 227 226 226 228 214 213 220 216 208 224 238 250 260 264 273 276 274 279 287 301 306 319 329 337
227 230 231 230 229 228 228 226 223 222 219 223 224 225 223 223 226 228 225 222 224 230 225 221 218 217 221 223 224 218 216 234 246 263 263 269 281 292 293 304 306 310 307 322 328
232 229 228 227 226 228 229 222 217 217 219 216 220 226 223 223 225 227 224 218 215 219 222 217 213 215 226 215 232 216 231 240 248 258 267 277 294 300 308 319 319 313 312 316 319
235 231 229 226 225 225 222 218 215 213 214 213 213 221 221 224 225 225 221 218 213 217 219 213 213 215 217 212 212 209 224 221 231 247 261 276 300 309 308 313 315 312 317 323 329
229 231 229 226 227 224 221 219 219 210 209 211 209 210 211 214 216 218 213 215 216 208 212 209 214 212 214 220 214 214 228 236 246 255 269 283 296 338 357 325 314 310 309 320 332
226 226 229 226 224 222 222 220 221 210 206 210 207 208 212 208 216 220 210 217 219 213 202 205 212 217 222 228 222 224 235 242 272 279 284 296 291 278 283 297 299 314 324 325 332
229 223 225 227 226 222 222 218 220 210 207 211 206 207 212 212 212 220 218 220 227 224 210 206 215 216 220 223 230 229 240 258 263 266 275 285 287 289 282 290 294 305 302 310 314
226 225 219 222 225 221 218 215 216 210 209 214 210 208 212 214 214 218 222 230 234 228 216 220 221 222 225 228 232 238 241 249 256 264 273 273 276 289 287 293 299 300 300 307 301
223 224 222 219 219 217 215 217 215 213 212 220 214 212 211 209 216 217 227 230 227 225 225 228 231 233 233 238 245 247 251 255 255 260 267 273 280 288 302 297 290 295 303 307 306
Height
5891 5893 5894 5896 5898 5899 5900 5902 5904 5903 5905 5905 5905 5906 5907 5908 5910 5912 5914 5917 5920 5919 5921 5922 5926 5928 5930 5930 5929 5929 5932 5932 5930 5929 5930 5929 5928 5931 5929 5926 5923 5921 5919 5917 5914
5889 5891 5892 5895 5896 5897 5899 5900 5901 5902 5903 5904 5905 5906 5907 5909 5911 5913 5915 5916 5918 5919 5920 5922 5924 5928 5930 5932 5931 5931 5932 5933 5932 5931 5931 5931 5931 5932 5930 5928 5925 5924 5922 5920 5915
5886 5888 5890 5892 5894 5896 5897 5898 5899 5901 5902 5903 5905 5906 5908 5910 5912 5913 5915 5917 5919 5920 5921 5922 5923 5927 5930 5932 5931 5932 5932 5932 5933 5932 5931 5931 5932 5934 5933 5930 5927 5926 5923 5921 5918
5883 5886 5888 5890 5892 5893 5895 5897 5898 5899 5901 5902 5905 5906 5908 5910 5913 5913 5915 5917 5919 5920 5921 5922 5923 5927 5928 5931 5932 5931 5931 5932 5933 5932 5932 5932 5934 5935 5934 5932 5930 5928 5925 5923 5920
5880 5882 5885 5888 5890 5891 5894 5895 5896 5898 5899 5901 5903 5905 5907 5910 5912 5913 5915 5917 5919 5920 5921 5923 5926 5928 5930 5932 5934 5934 5932 5931 5932 5933 5934 5933 5934 5935 5936 5934 5933 5931 5927 5923 5920
5876 5879 5882 5884 5887 5889 5891 5893 5894 5895 5897 5900 5902 5904 5907 5909 5910 5912 5914 5917 5919 5921 5923 5924 5926 5929 5931 5932 5933 5933 5932 5932 5934 5936 5935 5934 5935 5937 5938 5936 5935 5932 5928 5925 5921
5871 5875 5878 5881 5884 5886 5888 5890 5892 5894 5896 5897 5900 5903 5906 5907 5909 5912 5914 5916 5918 5920 5922 5924 5925 5927 5930 5932 5934 5933 5934 5933 5934 5935 5936 5936 5936 5937 5938 5937 5934 5931 5929 5926 5923
5867 5871 5874 5877 5880 5883 5885 5888 5890 5891 5893 5896 5898 5901 5904 5905 5908 5911 5912 5915 5917 5919 5920 5921 5923 5925 5927 5931 5933 5933 5933 5934 5934 5933 5934 5936 5936 5936 5936 5936 5934 5931 5929 5927 5924
5862 5866 5869 5873 5876 5879 5882 5884 5887 5889 5891 5893 5896 5899 5902 5904 5906 5909 5911 5914 5916 5918 5920 5921 5923 5925 5927 5929 5931 5931 5932 5934 5934 5935 5933 5933 5933 5934 5934 5933 5933 5931 5928 5927 5924
5857 5861 5864 5868 5871 5874 5877 5880 5884 5886 5888 5890 5893 5898 5900 5903 5904 5907 5910 5912 5914 5917 5919 5921 5923 5925 5926 5928 5928 5929 5931 5932 5932 5934 5932 5932 5932 5930 5931 5931 5931 5930 5927 5925 5924
5852 5855 5859 5862 5866 5869 5873 5876 5880 5883 5885 5888 5891 5893 5896 5899 5902 5904 5908 5910 5913 5915 5916 5919 5923 5924 5925 5925 5927 5929 5930 5930 5931 5931 5931 5930 5930 5928 5928 5927 5927 5927 5926 5923 5921
5846 5849 5853 5857 5860 5862 5867 5870 5875 5881 5883 5885 5887 5890 5893 5896 5899 5901 5905 5909 5910 5912 5914 5918 5921 5920 5922 5923 5926 5928 5928 5929 5928 5928 5929 5928 5929 5928 5926 5925 5925 5925 5924 5922 5918
5838 5842 5846 5850 5854 5856 5862 5866 5871 5875 5878 5881 5883 5887 5890 5894 5895 5899 5901 5905 5907 5910 5912 5915 5916 5917 5918 5920 5923 5925 5926 5927 5926 5925 5926 5926 5927 5928 5926 5924 5924 5922 5922 5920 5917
5831 5835 5838 5843 5848 5851 5858 5862 5865 5868 5872 5878 5879 5883 5886 5889 5893 5894 5897 5902 5904 5906 5908 5911 5912 5913 5915 5918 5921 5924 5924 5923 5923 5924 5924 5925 5923 5925 5925 5923 5921 5921 5919 5916 5913
5824 5827 5830 5835 5839 5845 5852 5855 5858 5863 5866 5872 5873 5877 5880 5885 5887 5890 5893 5897 5900 5902 5906 5908 5909 5910 5913 5916 5919 5921 5920 5920 5921 5922 5923 5924 5920 5920 5920 5918 5918 5917 5915 5914 5911
5817 5820 5823 5827 5831 5838 5843 5847 5852 5858 5860 5865 5869 5872 5876 5880 5883 5887 5889 5893 5895 5897 5901 5903 5906 5909 5912 5914 5915 5915 5916 5918 5919 5919 5920 5919 5918 5916 5915 5915 5914 5912 5911 5912 5907
5811 5815 5817 5819 5823 5829 5834 5839 5845 5848 5858 5860 5863 5867 5871 5875 5878 5883 5886 5889 5893 5895 5899 5900 5903 5906 5910 5912 5911 5913 5914 5915 5916 5916 5916 5914 5915 5914 5912 5912 5911 5911 5911 5908 5902
5805 5809 5811 5813 5818 5822 5826 5830 5836 5846 5852 5854 5857 5862 5865 5869 5873 5877 5881 5884 5887 5891 5895 5896 5900 5903 5906 5906 5907 5909 5910 5911 5911 5913 5913 5912 5912 5912 5911 5910 5909 5908 5902 5906 5902
5799 5803 5804 5809 5812 5814 5817 5820 5831 5840 5845 5847 5852 5857 5861 5864 5867 5870 5876 5881 5883 5887 5891 5893 5897 5899 5900 5901 5903 5905 5907 5907 5908 5909 5910 5910 5908 5906 5908 5907 5906 5905 5902 5902 5898
5791 5795 5799 5803 5806 5807 5810 5817 5827 5833 5838 5842 5846 5850 5855 5858 5862 5865 5870 5876 5879 5882 5885 5888 5892 5894 5896 5899 5900 5902 5903 5904 5905 5905 5906 5906 5904 5902 5904 5904 5903 5902 5902 5900 5896
5784 5788 5791 5795 5799 5802 5807 5814 5819 5824 5829 5835 5839 5843 5849 5852 5856 5859 5865 5870 5873 5876 5880 5884 5888 5891 5893 5896 5899 5899 5899 5901 5902 5903 5902 5903 5903 5899 5900 5901 5900 5898 5897 5896 5895
5777 5780 5784 5788 5793 5797 5804 5808 5811 5814 5820 5827 5833 5836 5841 5847 5851 5853 5859 5865 5868 5871 5875 5879 5883 5886 5890 5892 5894 5895 5896 5896 5898 5900 5900 5900 5902 5897 5894 5896 5897 5895 5892 5890 5887
5767 5772 5776 5781 5785 5791 5796 5800 5805 5808 5813 5818 5826 5830 5835 5842 5847 5850 5855 5860 5862 5865 5869 5874 5877 5882 5884 5888 5890 5891 5893 5895 5896 5896 5897 5898 5899 5897 5896 5895 5895 5893 5892 5889 5888
5759 5763 5767 5773 5776 5783 5789 5795 5800 5801 5805 5812 5820 5824 5830 5837 5840 5846 5850 5855 5858 5861 5865 5868 5872 5876 5881 5885 5887 5889 5890 5893 5893 5893 5893 5894 5895 5895 5895 5894 5894 5895 5893 5888 5885
5751 5756 5759 5765 5770 5777 5783 5789 5794 5796 5799 5804 5811 5817 5824 5832 5836 5840 5845 5851 5856 5859 5861 5864 5868 5872 5878 5880 5883 5885 5888 5888 5888 5888 5889 5890 5890 5891 5891 5891 5890 5890 5888 5885 5877
5743 5748 5752 5756 5763 5771 5777 5782 5786 5789 5794 5796 5806 5811 5817 5826 5832 5836 5841 5845 5850 5854 5857 5862 5865 5869 5872 5875 5878 5881 5883 5883 5883 5885 5885 5884 5885 5886 5887 5887 5887 5884 5882 5880 5878
5735 5740 5745 5750 5757 5763 5770 5775 5780 5783 5787 5790 5799 5807 5813 5819 5825 5832 5835 5839 5844 5849 5854 5858 5861 5864 5867 5870 5873 5876 5877 5878 5877 5878 5878 5878 5879 5881 5881 5881 5880 5878 5877 5876 5872